Regional Weather Roundup
Issued by NWS

Home | Current Version | Previous Version | Text Only | Print | Product List | Glossary Off
Versions: 1 2 3 4 5 6 7 8 9 10 11 12 13 14 15 16 17 18 19 20 21 22 23 24 25 26 27 28

000
ASUS45 KBOI 302210
RWRID

IDAHO REGIONAL WEATHER ROUNDUP
NATIONAL WEATHER SERVICE BOISE ID
400 PM MDT SAT JUL 30 2016

NOTE: "FAIR" INDICATES FEW OR NO CLOUDS BELOW 12000 FEET
WITH NO SIGNIFICANT WEATHER AND/OR OBSTRUCTIONS TO VISIBILITY

IDZ012-014-302300-
SOUTHWEST IDAHO


CITY           SKY/WX    TMP DP  RH WIND       PRES   REMARKS
BOISE          SUNNY     98  41  14 N12       29.79F HX  93
CALDWELL       SUNNY     99  47  17 VRB5      29.75F HX  95
MOUNTAIN HOME  MOSUNNY   99  43  14 N16       29.78F HX  95
$$

IDZ016-017-302300-
SOUTHCENTRAL IDAHO


CITY           SKY/WX    TMP DP  RH WIND       PRES   REMARKS
BURLEY         MOSUNNY   93  47  20 VRB3      29.86F
JEROME         SUNNY     95  47  19 VRB3      29.86F HX  91
TWIN FALLS     MOSUNNY   95  40  14 NW6       29.87F HX  91
$$

IDZ019>023-302300-
SOUTHEAST IDAHO


CITY           SKY/WX    TMP DP  RH WIND       PRES   REMARKS
IDAHO FALLS    SUNNY     93  40  15 S22       29.92F
POCATELLO      SUNNY     97  42  15 W17       29.91F HX  93
REXBURG        SUNNY     91  41  17 SW18      29.94F
$$

IDZ006-010-011-018-031-032-302300-
CENTRAL IDAHO MOUNTAINS


CITY           SKY/WX    TMP DP  RH WIND       PRES   REMARKS
MCCALL         SUNNY     88  32  13 S16G23    29.95F
HAILEY         MOSUNNY   90  48  24 SW8       29.97F
STANLEY          N/A     84  37  18 N9        30.05F
SALMON         SUNNY     95  41  15 SW18      29.74F HX  91
CHALLIS        SUNNY     94  33  11 SW15G22   29.87F
$$

IDZ002-004-006-007-026-302300-
NORTHERN IDAHO


CITY           SKY/WX    TMP DP  RH WIND       PRES   REMARKS
LEWISTON       SUNNY     98  44  15 NW14G23   29.70F HX  94
LOWELL           N/A     98  49  18 VRB3      29.68F HX  95
COEUR D`ALENE  SUNNY     90  48  24 SW16G25   29.72F
MULLAN PASS    SUNNY     73  45  36 VRB6      29.99F
$$




USA.gov is the U.S. government's official web portal to all federal, state and local government web resources and services.